Location: N�rnberg
(49.4471°N, 11.0632°E)
Time: 18:36:01
(UTC+01:00)

Envisat - Pass Details

Date: 20 February 2026
Orbit: 761 x 763 km, 98.4° (Epoch: 6 March)

Event Time Altitude Azimuth Distance (km) Brightness Sun altitude
Rises 03:21:20 0° 12° (NNE) 3,236 6.8 -37.7°
Reaches altitude 10° 03:23:39 10° 11° (N) 2,306 5.9 -37.4°
Enters shadow 03:24:32 15° 9° (N) 1,959 5.4 -37.3°
